[[{"header":{"parameterUnit":"m.s-1","parameterCategory":1,"la1":30.2991,"la2":30.254,"lo1":-89.0895,"lo2":-89.0444,"dy":0.0017,"dx":0.0017,"nx":28,"ny":28,"refTime":"2025-04-14T21:00:00:Z","depth":0,"parameterNumber":2,"parameterNumberName":"U-component_of_WINDS"},"data":[0,0,0,0,0,0,0,0,0,0,0,0,0,0,0,0,0,0,0,0,0,0,0,0,0,0,0,0,0,0,0,0,0,0,0,0,0,0,0,0,0,0,0,0,0,0,0,0,0,0,0,0,0,0,0,0,0,0,-2.063,-2.063,0,-2.0562,-2.0562,-2.0561,-2.0419,-2.0416,-2.0413,-2.041,-2.0345,-2.0346,-2.0347,0,0,0,0,0,0,0,0,0,0,0,0,0,-2.0642,-2.0643,-2.063,-2.0629,-2.0629,-2.0563,-2.0562,-2.0561,-2.0419,-2.0416,-2.0412,-2.0409,-2.0345,-2.0346,-2.0347,0,0,0,0,0,0,0,0,0,0,0,0,0,-2.0612,-2.0643,-2.063,-2.055,-2.0542,-2.0563,-2.0562,-2.056,-2.042,-2.0415,-2.0411,-2.0407,-2.0344,-2.0346,-2.0347,-2.0442,0,0,-2.0351,-2.0352,0,0,0,0,0,0,0,0,-2.0614,-2.0612,-2.0563,-2.0555,-2.0547,-2.0494,-2.0542,-2.0521,-2.0421,-2.0466,-2.041,-2.0405,-2.0399,-2.0395,-2.0392,-2.0439,-2.0436,-2.0352,-2.0352,-2.0353,-2.0353,0,0,0,0,0,0,0,-2.0616,-2.0614,-2.0603,-2.0562,-2.0552,-2.0519,-2.051,-2.0537,-2.0458,-2.0462,-2.0451,-2.0445,-2.0393,-2.0391,-2.039,-2.0435,-2.0352,-2.0353,-2.0354,-2.0354,-2.0559,-2.0564,0,0,0,0,0,0,-2.0629,-2.0617,-2.0606,-2.0601,-2.057,-2.0522,-2.0512,-2.0516,-2.0457,-2.0444,-2.0449,-2.0439,-2.0391,-2.0388,-2.0387,-2.0495,-2.0353,-2.0354,-2.0355,-2.0555,-2.056,-2.0565,0,0,0,0,0,0,-2.063,-2.063,-2.0608,-2.0606,-2.0601,-2.0526,-2.0532,-2.0517,-2.0514,-2.0447,-2.0432,-2.0461,-2.0387,-2.0385,-2.043,-2.0491,-2.0355,-2.0356,-2.0549,-2.0556,-2.0563,-2.0713,0,0,0,0,0,0,-2.0631,-2.0631,-2.0665,-2.0608,-2.0602,-2.0651,-2.0535,-2.0518,-2.0516,-2.0502,-2.0454,-2.0442,-2.0384,-2.0428,-2.0431,-2.0491,-2.0357,-2.0543,-2.0552,-2.056,-2.0703,-2.0724,-2.0743,0,0,0,0,0,-2.0632,-2.0711,-2.0667,-2.0667,-2.0642,-2.0655,-2.0652,-2.0581,-2.0522,-2.0556,-2.0514,-2.0444,-2.0484,-2.0434,-2.0436,-2.0497,-2.0539,-2.055,-2.056,-2.0693,-2.072,-2.0743,0,0,0,0,0,0,-2.0778,-2.0702,-2.0653,-2.0715,-2.0693,-2.0631,-2.0672,-2.0612,-2.0607,-2.0594,-2.0508,-2.0499,-2.0556,-2.053,-2.0476,-2.0587,-2.05,-2.0512,-2.0601,-2.0626,-2.0646,-2.0652,-2.0359,0,0,0,0,0,-2.0817,-2.0833,-2.0765,-2.0827,-2.0818,-2.0748,-2.0751,-2.0698,-2.0672,-2.0662,-2.0622,-2.0601,-2.0609,-2.0616,-2.0619,-2.0698,-2.0687,-2.0741,-2.0761,-2.0778,-2.079,-2.0831,-2.0855,-2.0599,-2.0599,-2.0599,0,0,-2.0899,-2.0859,-2.0874,-2.0855,-2.0832,-2.0851,-2.0741,-2.0765,-2.078,-2.0666,-2.0706,-2.0677,-2.0648,-2.071,-2.0736,-2.0691,-2.0858,-2.0792,-2.0806,-2.0807,-2.0845,-2.0869,-2.0891,-2.0606,-2.0605,-2.0604,0,0,-2.1058,-2.1029,-2.1077,-2.1056,-2.1021,-2.0974,-2.0986,-2.0934,-2.091,-2.0948,-2.0864,-2.088,-2.0895,-2.0878,-2.0871,-2.1026,-2.0962,-2.1029,-2.1136,-2.1178,-2.1198,-2.1216,-2.1273,-2.1294,-2.104,-2.1041,-2.1041,0,-2.1164,-2.1188,-2.111,-2.1141,-2.1136,-2.1033,-2.1083,-2.1067,-2.1036,-2.1036,-2.0985,-2.1003,-2.0975,-2.1034,-2.1072,-2.1069,-2.1082,-2.1035,-2.1201,-2.1218,-2.1234,-2.1287,-2.1308,-2.1049,-2.1048,-2.1047,-2.1047,0,-2.1322,-2.134,-2.1384,-2.1356,-2.1356,-2.1396,-2.1326,-2.1335,-2.1284,-2.1243,-2.1285,-2.1249,-2.1244,-2.1253,-2.1203,-2.1306,-2.1279,-2.1217,-2.1128,-2.1268,-2.1317,-2.1336,-2.1061,-2.1058,-2.1056,-2.1054,0,0,-2.1571,-2.1499,-2.1517,-2.1503,-2.1458,-2.1472,-2.1509,-2.1502,-2.1513,-2.1496,-2.1526,-2.1541,-2.1484,-2.1476,-2.1424,-2.146,-2.1587,-2.1393,-2.1391,-2.1432,-2.17,-2.1749,-2.1773,-2.1544,-2.1548,-2.1551,-2.1703,0,-2.172,-2.1777,-2.1708,-2.1781,-2.1798,-2.1702,-2.1734,-2.1711,-2.1674,-2.1685,-2.1644,-2.1657,-2.1579,-2.1574,-2.1606,-2.1565,-2.164,-2.1553,-2.1574,-2.1575,-2.1586,-2.1798,-2.1849,-2.1995,-2.1722,-2.1725,-2.1727,0,-2.1902,-2.1893,-2.1967,-2.1919,-2.1923,-2.1953,-2.1943,-2.1954,-2.1927,-2.1897,-2.189,-2.1827,-2.1862,-2.1775,-2.1823,-2.1765,-2.177,-2.1751,-2.1755,-2.1756,-2.1661,-2.1807,-2.2039,-2.2062,-2.1756,-2.1754,-2.1752,0,-2.2079,-2.2085,-2.213,-2.2121,-2.2065,-2.2089,-2.2067,-2.2036,-2.2037,-2.2029,-2.2029,-2.2026,-2.2025,-2.2025,-2.1963,-2.1905,-2.202,-2.1927,-2.1998,-2.2,-2.2027,-2.2027,-2.2266,-2.2028,-2.2028,-2.2028,-2.2027,0,-2.2254,-2.2303,-2.2208,-2.2237,-2.229,-2.2212,-2.2267,-2.2236,-2.2209,-2.2231,-2.2147,-2.217,-2.2086,-2.2101,-2.2053,-2.2102,-2.2101,-2.208,-2.2067,-2.2088,-2.2092,-2.2091,-2.208,-2.2033,-2.2032,-2.2031,-2.203,0,-2.246,-2.2398,-2.2441,-2.2385,-2.2372,-2.2415,-2.2367,-2.2392,-2.235,-2.2379,-2.2381,-2.2316,-2.2329,-2.2267,-2.2269,-2.2237,-2.231,-2.2279,-2.232,-2.2311,-2.2386,-2.238,-2.2634,-2.2665,-2.2407,-2.2409,-2.2411,0,-2.2576,-2.2612,-2.256,-2.2568,-2.255,-2.2564,-2.2565,-2.249,-2.2495,-2.2467,-2.2497,-2.2502,-2.2503,-2.2529,-2.2483,-2.2485,-2.2454,-2.2543,-2.2454,-2.2475,-2.2458,-2.2457,-2.2461,-2.2562,-2.2566,-2.2568,-2.257,0,-2.279,-2.2758,-2.2761,-2.2756,-2.2759,-2.2751,-2.2737,-2.2749,-2.2668,-2.2678,-2.269,-2.269,-2.2693,-2.2701,-2.2693,-2.2672,-2.261,-2.2599,-2.2615,-2.2638,-2.2661,-2.2652,-2.2372,-2.2593,-2.2591,-2.2589,-2.2588,-2.2587,-2.2956,-2.2984,-2.2952,-2.2959,-2.2941,-2.2931,-2.2952,-2.2912,-2.292,-2.2915,-2.2871,-2.2892,-2.2866,-2.2849,-2.2835,-2.2852,-2.281,-2.2834,-2.284,-2.2848,-2.2862,-2.2657,-2.285,-2.2849,-2.2848,-2.2848,-2.2847,0,-2.3167,-2.3141,-2.3149,-2.3132,-2.3139,-2.3077,-2.3059,-2.307,-2.3089,-2.3069,-2.3071,-2.3086,-2.3094,-2.3049,-2.3051,-2.3073,-2.3044,-2.3076,-2.3075,-2.3072,-2.2898,-2.2884,-2.31,-2.31,-2.31,-2.31,-2.3099,-2.3099,-2.3277,-2.3322,-2.3287,-2.3323,-2.3297,-2.3316,-2.3311,-2.3302,-2.3286,-2.3306,-2.3312,-2.3281,-2.3252,-2.3252,-2.3257,-2.3243,-2.3249,-2.3292,-2.3269,-2.3108,-2.3083,-2.306,-2.3047,-2.3293,-2.3293,-2.3441,-2.3442,-2.3444]},{"header":{"parameterUnit":"m.s-1","parameterCategory":1,"la1":30.2991,"la2":30.254,"lo1":-89.0895,"lo2":-89.0444,"dy":0.0017,"dx":0.0017,"nx":28,"ny":28,"refTime":"2025-04-14T21:00:00:Z","depth":0,"parameterNumber":3,"parameterNumberName":"V-component_of_WINDS"},"data":[0,0,0,0,0,0,0,0,0,0,0,0,0,0,0,0,0,0,0,0,0,0,0,0,0,0,0,0,0,0,0,0,0,0,0,0,0,0,0,0,0,0,0,0,0,0,0,0,0,0,0,0,0,0,0,0,0,0,0.822,0.8219,0,0.8175,0.8175,0.8174,0.8176,0.8177,0.8177,0.8178,0.8129,0.8127,0.8125,0,0,0,0,0,0,0,0,0,0,0,0,0,0.8304,0.8302,0.822,0.8219,0.8218,0.8175,0.8175,0.8174,0.8176,0.8177,0.8177,0.8178,0.8129,0.8127,0.8125,0,0,0,0,0,0,0,0,0,0,0,0,0,0.8264,0.8302,0.822,0.8214,0.8213,0.8175,0.8175,0.8174,0.8176,0.8177,0.8178,0.8178,0.813,0.8127,0.8125,0.8088,0,0,0.8116,0.8115,0,0,0,0,0,0,0,0,0.8266,0.8261,0.8216,0.8215,0.8214,0.8182,0.8186,0.8145,0.8175,0.819,0.8178,0.8179,0.8145,0.8141,0.8131,0.8086,0.8083,0.8116,0.8114,0.8113,0.8112,0,0,0,0,0,0,0,0.8269,0.8263,0.8202,0.8215,0.8214,0.8213,0.8209,0.8178,0.8163,0.8189,0.8189,0.8184,0.8145,0.8134,0.813,0.8083,0.8116,0.8113,0.8111,0.811,0.8005,0.8004,0,0,0,0,0,0,0.8273,0.8265,0.8203,0.8201,0.8243,0.8211,0.8206,0.8191,0.8163,0.816,0.8183,0.8184,0.8138,0.8133,0.8128,0.8082,0.8113,0.811,0.8108,0.8006,0.8005,0.8003,0,0,0,0,0,0,0.8275,0.8268,0.8205,0.8233,0.8225,0.8209,0.8192,0.819,0.8178,0.8159,0.8156,0.8174,0.8139,0.8132,0.8098,0.8081,0.8109,0.8106,0.8007,0.8005,0.8004,0.7992,0,0,0,0,0,0,0.8277,0.8268,0.8255,0.8232,0.8223,0.8176,0.8191,0.8188,0.8174,0.8175,0.815,0.8147,0.8139,0.8102,0.8095,0.8077,0.8104,0.8009,0.8006,0.8004,0.7993,0.799,0.7987,0,0,0,0,0,0.828,0.8252,0.8254,0.8246,0.8206,0.8176,0.817,0.8163,0.8173,0.8158,0.8146,0.8147,0.8085,0.8099,0.8091,0.8072,0.801,0.8007,0.8005,0.7995,0.7991,0.7987,0,0,0,0,0,0,0.8271,0.8249,0.8251,0.8215,0.8197,0.8176,0.8158,0.8158,0.8137,0.8138,0.8129,0.8124,0.8089,0.8078,0.8094,0.8035,0.8048,0.8044,0.8043,0.8039,0.8036,0.8038,0.8102,0,0,0,0,0,0.8266,0.8244,0.8225,0.8195,0.8186,0.8174,0.816,0.8156,0.8137,0.8129,0.8114,0.8094,0.807,0.8054,0.8031,0.7993,0.7987,0.7976,0.7972,0.797,0.7965,0.7944,0.7938,0.7995,0.7995,0.7995,0,0,0.8253,0.8238,0.8224,0.8193,0.8179,0.8155,0.8167,0.8142,0.8124,0.8125,0.8092,0.808,0.8058,0.8021,0.8004,0.801,0.7949,0.7967,0.7965,0.7962,0.794,0.7935,0.793,0.7994,0.7994,0.7994,0,0,0.8217,0.8204,0.8177,0.8163,0.8142,0.8134,0.8128,0.8107,0.8099,0.8067,0.8067,0.8045,0.8004,0.7988,0.7974,0.7934,0.7934,0.7926,0.7908,0.7886,0.7882,0.7878,0.7862,0.7857,0.7923,0.7923,0.7923,0,0.8202,0.8168,0.8163,0.8138,0.8123,0.8125,0.8098,0.8084,0.8056,0.8046,0.8054,0.8002,0.7987,0.7947,0.7937,0.7926,0.7918,0.7928,0.7883,0.7879,0.7875,0.786,0.7854,0.7922,0.7922,0.7922,0.7922,0,0.8151,0.8127,0.8108,0.8082,0.8066,0.804,0.803,0.8015,0.8013,0.8004,0.797,0.7953,0.7926,0.7916,0.7914,0.7875,0.7879,0.7885,0.7898,0.7869,0.7854,0.7849,0.7921,0.7921,0.7921,0.7921,0,0,0.8106,0.8079,0.8072,0.806,0.8038,0.8019,0.7993,0.7968,0.7954,0.7935,0.7911,0.7877,0.7883,0.7868,0.7863,0.7845,0.7813,0.7853,0.7852,0.7845,0.7768,0.7762,0.7756,0.7814,0.7813,0.7812,0.7769,0,0.8066,0.802,0.8016,0.7974,0.7952,0.7954,0.7931,0.7914,0.7906,0.7884,0.7875,0.785,0.786,0.7851,0.7833,0.7821,0.7797,0.7824,0.779,0.7789,0.7794,0.7748,0.7742,0.7703,0.7764,0.7763,0.7762,0,0.8013,0.7994,0.7951,0.7932,0.7922,0.7901,0.7878,0.7858,0.784,0.7834,0.7818,0.7817,0.7789,0.7805,0.7765,0.7784,0.777,0.7762,0.7761,0.7755,0.7772,0.774,0.769,0.7683,0.7754,0.7754,0.7755,0,0.7983,0.7946,0.7915,0.7905,0.7883,0.7868,0.7858,0.784,0.7826,0.7805,0.7796,0.7772,0.7759,0.774,0.7732,0.7744,0.7693,0.7708,0.7686,0.7686,0.7673,0.7674,0.7618,0.7668,0.7668,0.7668,0.7668,0,0.7938,0.7911,0.7901,0.7882,0.7852,0.7847,0.7817,0.7807,0.7792,0.777,0.7771,0.775,0.7742,0.772,0.7713,0.7681,0.7675,0.767,0.7668,0.7668,0.7669,0.7657,0.7659,0.7667,0.7667,0.7667,0.7668,0,0.7897,0.789,0.7857,0.7839,0.7834,0.7812,0.7796,0.7777,0.777,0.7742,0.7735,0.7723,0.7697,0.7688,0.7656,0.7652,0.7614,0.7616,0.7621,0.762,0.7598,0.7599,0.7531,0.7522,0.758,0.7579,0.7579,0,0.7868,0.7847,0.7828,0.7814,0.7803,0.7781,0.7766,0.7762,0.7746,0.7724,0.7707,0.7682,0.7661,0.762,0.7607,0.7583,0.7582,0.7561,0.7578,0.758,0.758,0.758,0.7578,0.7556,0.7556,0.7555,0.7555,0,0.7816,0.7814,0.7793,0.7772,0.7755,0.7737,0.772,0.7708,0.7701,0.7684,0.7658,0.7642,0.761,0.7585,0.756,0.7549,0.755,0.755,0.7543,0.7542,0.7545,0.7541,0.7609,0.7551,0.7551,0.7551,0.7551,0.7552,0.7779,0.776,0.7744,0.7721,0.7708,0.7693,0.7674,0.7665,0.7643,0.7618,0.7617,0.7588,0.757,0.7538,0.7525,0.7503,0.7509,0.7499,0.7497,0.7494,0.7491,0.7551,0.7498,0.7499,0.7499,0.7499,0.7499,0,0.7725,0.7716,0.7695,0.7671,0.7653,0.7659,0.764,0.7624,0.76,0.7584,0.7564,0.7534,0.7509,0.7496,0.7471,0.7456,0.7455,0.7449,0.7449,0.7446,0.7488,0.7496,0.745,0.745,0.745,0.745,0.745,0.745,0.7695,0.7664,0.766,0.7623,0.7613,0.7586,0.7575,0.756,0.7547,0.7514,0.7494,0.7487,0.7471,0.7445,0.7423,0.742,0.7409,0.7402,0.7399,0.7438,0.7443,0.7448,0.7455,0.7401,0.7401,0.7358,0.7358,0.7358]}]]